Time,TemperatureF,DewpointF,PressureIn,WindDirection,WindDirectionDegrees,WindSpeedMPH,WindSpeedGustMPH,Humidity,HourlyPrecipIn,Conditions,Clouds,dailyrainin,SoftwareType,DateUTC
2014-09-16 09:00:00,-999.9,-99.9,-32.77,North,32767,-999.0,8.0,255,-99.99,,,0.00,Wunderground v.1.15,2014-09-16 16:00:00,
2014-09-16 09:05:00,-999.9,-99.9,-32.77,North,32767,-999.0,8.0,255,-99.99,,,0.00,Wunderground v.1.15,2014-09-16 16:05:00,
2014-09-16 09:10:00,-999.9,-99.9,-32.77,North,32767,-999.0,8.0,255,-99.99,,,0.00,Wunderground v.1.15,2014-09-16 16:10:00,
2014-09-16 09:20:00,-999.9,-99.9,-32.77,North,32767,-999.0,8.0,255,-99.99,,,0.00,Wunderground v.1.15,2014-09-16 16:20:00,
2014-09-16 09:30:00,-999.9,-99.9,-32.77,North,32767,-999.0,8.0,255,-99.99,,,0.00,Wunderground v.1.15,2014-09-16 16:30:00,
2014-09-16 09:35:00,-999.9,-99.9,-32.77,North,32767,-999.0,8.0,255,-99.99,,,0.00,Wunderground v.1.15,2014-09-16 16:35:00,
2014-09-16 09:40:00,-999.9,-99.9,-32.77,North,32767,-999.0,8.0,255,-99.99,,,0.00,Wunderground v.1.15,2014-09-16 16:40:00,
2014-09-16 09:45:00,-999.9,-99.9,-32.77,North,32767,-999.0,8.0,255,-99.99,,,0.00,Wunderground v.1.15,2014-09-16 16:45:00,
2014-09-16 10:00:00,-999.9,-99.9,-32.77,North,32767,-999.0,8.0,255,-99.99,,,0.00,Wunderground v.1.15,2014-09-16 17:00:00,
2014-09-16 10:05:00,-999.9,-99.9,-32.77,North,32767,-999.0,8.0,255,-99.99,,,0.00,Wunderground v.1.15,2014-09-16 17:05:00,
2014-09-16 10:15:00,-999.9,-99.9,-32.77,North,32767,-999.0,8.0,255,-99.99,,,0.00,Wunderground v.1.15,2014-09-16 17:15:00,
2014-09-16 10:20:00,-999.9,-99.9,-32.77,North,32767,-999.0,8.0,255,-99.99,,,0.00,Wunderground v.1.15,2014-09-16 17:20:00,
2014-09-16 10:25:00,-999.9,-99.9,-32.77,North,32767,-999.0,8.0,255,-99.99,,,0.00,Wunderground v.1.15,2014-09-16 17:25:00,
2014-09-16 10:30:00,-999.9,-99.9,-32.77,North,32767,-999.0,8.0,255,-99.99,,,0.00,Wunderground v.1.15,2014-09-16 17:30:00,
2014-09-16 10:40:00,87.8,61.9,29.98,NNE,16,14.0,14.0,42,0.00,,,0.00,Wunderground v.1.15,2014-09-16 17:40:00,
2014-09-16 10:45:00,87.8,62.5,29.98,NNE,20,14.0,15.0,43,0.00,,,0.00,Wunderground v.1.15,2014-09-16 17:45:00,
2014-09-16 10:50:00,87.8,62.5,29.98,North,0,14.0,14.0,43,0.00,,,0.00,Wunderground v.1.15,2014-09-16 17:50:00,
2014-09-16 10:55:00,87.8,61.9,29.98,North,11,13.0,20.0,42,0.00,,,0.00,Wunderground v.1.15,2014-09-16 17:55:00,
2014-09-16 11:00:00,87.4,62.8,29.98,North,11,14.0,14.0,44,0.00,,,0.00,Wunderground v.1.15,2014-09-16 18:00:00,
2014-09-16 11:10:00,86.7,63.4,29.98,NE,46,13.0,21.0,46,0.00,,,0.00,Wunderground v.1.15,2014-09-16 18:10:00,
2014-09-16 11:20:00,85.9,63.9,29.98,ENE,68,13.0,13.0,48,0.00,,,0.00,Wunderground v.1.15,2014-09-16 18:20:00,
2014-09-16 11:25:00,85.9,63.9,29.98,ESE,108,12.0,19.0,48,0.00,,,0.00,Wunderground v.1.15,2014-09-16 18:25:00,
2014-09-16 11:30:00,85.5,64.2,29.98,NNE,23,12.0,12.0,49,0.00,,,0.00,Wunderground v.1.15,2014-09-16 18:30:00,
2014-09-16 11:40:00,85.3,64.0,29.98,ENE,75,11.0,16.0,49,0.00,,,0.00,Wunderground v.1.15,2014-09-16 18:40:00,
2014-09-16 11:45:00,85.3,63.4,29.98,NNE,23,12.0,18.0,48,0.00,,,0.00,Wunderground v.1.15,2014-09-16 18:45:00,
2014-09-16 11:50:00,84.9,64.2,29.98,NE,37,13.0,22.0,50,0.00,,,0.00,Wunderground v.1.15,2014-09-16 18:50:00,
2014-09-16 11:55:00,84.5,64.9,29.98,NNE,20,14.0,22.0,52,0.00,,,0.00,Wunderground v.1.15,2014-09-16 18:55:00,
2014-09-16 12:00:00,84.1,65.7,29.98,ENE,70,13.0,19.0,54,0.00,,,0.00,Wunderground v.1.15,2014-09-16 19:00:00,
2014-09-16 12:10:00,83.6,65.7,29.98,NNE,33,12.0,16.0,55,0.00,,,0.00,Wunderground v.1.15,2014-09-16 19:10:00,
2014-09-16 12:15:00,83.4,65.5,29.98,NE,41,12.0,18.0,55,0.00,,,0.00,Wunderground v.1.15,2014-09-16 19:15:00,
2014-09-16 12:20:00,83.0,65.7,29.98,NE,34,13.0,19.0,56,0.00,,,0.00,Wunderground v.1.15,2014-09-16 19:20:00,
2014-09-16 12:25:00,82.6,65.8,29.98,NE,35,13.0,19.0,57,0.00,,,0.00,Wunderground v.1.15,2014-09-16 19:25:00,
2014-09-16 12:30:00,82.2,66.0,29.98,NNE,31,13.0,19.0,58,0.00,,,0.00,Wunderground v.1.15,2014-09-16 19:30:00,
2014-09-16 12:40:00,81.2,67.9,29.98,NE,41,12.0,12.0,64,0.00,,,0.00,Wunderground v.1.15,2014-09-16 19:40:00,
2014-09-16 12:45:00,80.5,68.5,29.98,ENE,62,11.0,13.0,67,0.00,,,0.00,Wunderground v.1.15,2014-09-16 19:45:00,
2014-09-16 12:50:00,79.9,68.8,29.98,ENE,62,10.0,13.0,69,0.00,,,0.00,Wunderground v.1.15,2014-09-16 19:50:00,
2014-09-16 12:55:00,79.4,68.8,29.98,NE,44,10.0,14.0,70,0.00,,,0.00,Wunderground v.1.15,2014-09-16 19:55:00,
2014-09-16 13:00:00,79.0,69.2,29.98,North,0,10.0,10.0,72,0.00,,,0.00,Wunderground v.1.15,2014-09-16 20:00:00,
2014-09-16 13:10:00,78.6,69.2,29.98,NE,39,8.0,14.0,73,0.00,,,0.00,Wunderground v.1.15,2014-09-16 20:10:00,
2014-09-16 13:15:00,78.6,69.2,29.98,NNE,23,8.0,14.0,73,0.00,,,0.00,Wunderground v.1.15,2014-09-16 20:15:00,
2014-09-16 13:25:00,78.8,68.6,29.97,NNE,21,7.0,11.0,71,0.00,,,0.00,Wunderground v.1.15,2014-09-16 20:25:00,
2014-09-16 13:30:00,79.2,69.0,29.97,NNE,13,7.0,9.0,71,0.00,,,0.00,Wunderground v.1.15,2014-09-16 20:30:00,
2014-09-16 13:40:00,79.2,68.1,29.97,North,6,7.0,10.0,69,0.00,,,0.00,Wunderground v.1.15,2014-09-16 20:40:00,
2014-09-16 13:45:00,79.6,67.7,29.97,NNE,12,7.0,11.0,67,0.00,,,0.00,Wunderground v.1.15,2014-09-16 20:45:00,
2014-09-16 13:55:00,79.8,68.7,29.95,North,0,4.0,7.0,69,0.00,,,0.00,Wunderground v.1.15,2014-09-16 20:55:00,
2014-09-16 14:00:00,79.8,69.1,29.95,NNW,345,5.0,5.0,70,0.00,,,0.00,Wunderground v.1.15,2014-09-16 21:00:00,
2014-09-16 14:10:00,79.9,69.2,29.95,North,0,5.0,8.0,70,0.00,,,0.00,Wunderground v.1.15,2014-09-16 21:10:00,
2014-09-16 14:15:00,80.1,69.0,29.95,NNW,331,5.0,8.0,69,0.00,,,0.00,Wunderground v.1.15,2014-09-16 21:15:00,
2014-09-16 14:20:00,80.7,69.2,29.95,WNW,285,4.0,4.0,68,0.00,,,0.00,Wunderground v.1.15,2014-09-16 21:20:00,
2014-09-16 14:25:00,80.5,68.5,29.94,WNW,298,5.0,5.0,67,0.00,,,0.00,Wunderground v.1.15,2014-09-16 21:25:00,
2014-09-16 14:35:00,79.9,69.2,29.94,WSW,254,4.0,6.0,70,0.00,,,0.00,Wunderground v.1.15,2014-09-16 21:35:00,
2014-09-16 14:45:00,80.1,69.4,29.94,North,354,5.0,8.0,70,0.00,,,0.00,Wunderground v.1.15,2014-09-16 21:45:00,
2014-09-16 14:50:00,80.1,69.4,29.94,NW,304,4.0,7.0,70,0.00,,,0.00,Wunderground v.1.15,2014-09-16 21:50:00,
2014-09-16 15:00:00,80.5,69.4,29.93,NW,313,3.0,6.0,69,0.00,,,0.00,Wunderground v.1.15,2014-09-16 22:00:00,
2014-09-16 15:05:00,80.5,69.8,29.93,WNW,302,3.0,7.0,70,0.00,,,0.00,Wunderground v.1.15,2014-09-16 22:05:00,
2014-09-16 15:15:00,80.3,68.8,29.92,WSW,254,4.0,7.0,68,0.00,,,0.00,Wunderground v.1.15,2014-09-16 22:15:00,
2014-09-16 15:20:00,80.3,68.3,29.92,WNW,288,5.0,5.0,67,0.00,,,0.00,Wunderground v.1.15,2014-09-16 22:20:00,
2014-09-16 15:25:00,80.3,68.3,29.92,SW,222,6.0,6.0,67,0.00,,,0.00,Wunderground v.1.15,2014-09-16 22:25:00,
2014-09-16 15:30:00,80.3,67.9,29.92,West,264,6.0,6.0,66,0.00,,,0.00,Wunderground v.1.15,2014-09-16 22:30:00,
2014-09-16 15:35:00,80.1,68.2,29.92,West,266,6.0,9.0,67,0.00,,,0.00,Wunderground v.1.15,2014-09-16 22:35:00,
2014-09-16 15:45:00,80.3,67.9,29.91,WSW,257,4.0,6.0,66,0.00,,,0.00,Wunderground v.1.15,2014-09-16 22:45:00,
2014-09-16 15:50:00,80.5,68.1,29.91,WNW,301,5.0,9.0,66,0.00,,,0.00,Wunderground v.1.15,2014-09-16 22:50:00,
2014-09-16 16:00:00,80.7,67.4,29.90,West,273,5.0,5.0,64,0.00,,,0.00,Wunderground v.1.15,2014-09-16 23:00:00,
2014-09-16 16:05:00,80.9,67.1,29.90,WSW,238,6.0,7.0,63,0.00,,,0.00,Wunderground v.1.15,2014-09-16 23:05:00,
2014-09-16 16:15:00,81.1,66.8,29.90,West,274,6.0,13.0,62,0.00,,,0.00,Wunderground v.1.15,2014-09-16 23:15:00,
2014-09-16 16:20:00,81.2,66.5,29.90,West,272,6.0,11.0,61,0.00,,,0.00,Wunderground v.1.15,2014-09-16 23:20:00,
2014-09-16 16:30:00,81.4,66.7,29.89,NW,306,7.0,12.0,61,0.00,,,0.00,Wunderground v.1.15,2014-09-16 23:30:00,
2014-09-16 16:40:00,81.8,66.6,29.89,NW,324,6.0,6.0,60,0.00,,,0.00,Wunderground v.1.15,2014-09-16 23:40:00,
2014-09-16 16:45:00,82.0,66.7,29.89,West,276,6.0,12.0,60,0.00,,,0.00,Wunderground v.1.15,2014-09-16 23:45:00,
2014-09-16 16:55:00,82.4,66.6,29.89,West,274,5.0,9.0,59,0.00,,,0.00,Wunderground v.1.15,2014-09-16 23:55:00,
2014-09-16 17:00:00,82.4,66.1,29.89,NW,304,6.0,12.0,58,0.00,,,0.00,Wunderground v.1.15,2014-09-17 00:00:00,
2014-09-16 17:10:00,82.2,66.4,29.89,West,279,7.0,11.0,59,0.00,,,0.00,Wunderground v.1.15,2014-09-17 00:10:00,
2014-09-16 17:15:00,82.2,66.4,29.89,West,269,7.0,11.0,59,0.00,,,0.00,Wunderground v.1.15,2014-09-17 00:15:00,
2014-09-16 17:25:00,82.6,65.3,29.89,NW,306,6.0,7.0,56,0.00,,,0.00,Wunderground v.1.15,2014-09-17 00:25:00,
2014-09-16 17:35:00,82.4,65.6,29.89,West,263,6.0,11.0,57,0.00,,,0.00,Wunderground v.1.15,2014-09-17 00:35:00,
2014-09-16 17:40:00,82.4,65.6,29.89,West,271,7.0,7.0,57,0.00,,,0.00,Wunderground v.1.15,2014-09-17 00:40:00,
2014-09-16 17:50:00,82.4,65.1,29.89,WSW,245,7.0,11.0,56,0.00,,,0.00,Wunderground v.1.15,2014-09-17 00:50:00,
2014-09-16 17:55:00,82.2,64.9,29.89,NW,312,8.0,14.0,56,0.00,,,0.00,Wunderground v.1.15,2014-09-17 00:55:00,
2014-09-16 18:05:00,82.2,64.9,29.89,West,278,7.0,13.0,56,0.00,,,0.00,Wunderground v.1.15,2014-09-17 01:05:00,
2014-09-16 18:10:00,82.2,63.4,29.89,West,281,8.0,14.0,53,0.00,,,0.00,Wunderground v.1.15,2014-09-17 01:10:00,
2014-09-16 18:15:00,82.2,63.4,29.89,WNW,284,9.0,15.0,53,0.00,,,0.00,Wunderground v.1.15,2014-09-17 01:15:00,
2014-09-16 18:20:00,82.4,63.5,29.89,WNW,293,9.0,9.0,53,0.00,,,0.00,Wunderground v.1.15,2014-09-17 01:20:00,
2014-09-16 18:25:00,82.4,63.5,29.89,WNW,288,9.0,14.0,53,0.00,,,0.00,Wunderground v.1.15,2014-09-17 01:25:00,
2014-09-16 18:35:00,82.2,63.9,29.89,WNW,282,8.0,14.0,54,0.00,,,0.00,Wunderground v.1.15,2014-09-17 01:35:00,
2014-09-16 18:40:00,82.4,64.1,29.88,WSW,252,8.0,8.0,54,0.00,,,0.00,Wunderground v.1.15,2014-09-17 01:40:00,
2014-09-16 18:50:00,82.6,63.7,29.88,West,278,7.0,7.0,53,0.00,,,0.00,Wunderground v.1.15,2014-09-17 01:50:00,
2014-09-16 18:55:00,82.8,63.9,29.88,West,281,7.0,12.0,53,0.00,,,0.00,Wunderground v.1.15,2014-09-17 01:55:00,
2014-09-16 19:05:00,82.8,63.9,29.88,West,259,7.0,11.0,53,0.00,,,0.00,Wunderground v.1.15,2014-09-17 02:05:00,
2014-09-16 19:15:00,83.0,64.1,29.88,WSW,256,7.0,14.0,53,0.00,,,0.00,Wunderground v.1.15,2014-09-17 02:15:00,
2014-09-16 19:25:00,82.8,63.9,29.88,NW,304,7.0,12.0,53,0.00,,,0.00,Wunderground v.1.15,2014-09-17 02:25:00,
2014-09-16 19:30:00,82.8,64.5,29.88,WNW,292,7.0,12.0,54,0.00,,,0.00,Wunderground v.1.15,2014-09-17 02:30:00,